Regional Weather Roundup
Issued by NWS

Home | Current Version | Previous Version | Graphics & Text | Print | Product List | Glossary Off
Versions: 1 2 3 4 5 6 7 8 9 10 11 12 13 14 15 16 17 18 19 20 21 22 23 24 25 26 27 28 29 30 31 32 33 34 35 36 37 38 39 40 41 42 43 44 45 46 47 48 49 50

759
ASUS43 KDTX 160101
RWRMI
MICHIGAN HOURLY REGIONAL WEATHER ROUNDUP
NATIONAL WEATHER SERVICE DETROIT/PONTIAC MI
800 PM EST MON JAN 15 2018

NOTE: "FAIR" INDICATES FEW OR NO CLOUDS BELOW 12,000 FEET WITH NO
SIGNIFICANT WEATHER AND/OR OBSTRUCTION TO VISIBILITY.

MIZ047>049-052>055-059>063-066>070-074>076-081>083-160200-
SOUTHEAST LOWER MICHIGAN

CITY           SKY/WX    TMP DP  RH WIND       PRES   REMARKS
ADRIAN         CLOUDY    19  17  92 CALM      30.25R
ALMA           LGT SNOW  17  15  93 NE6       30.28R WCI   8
ANN ARBOR      CLOUDY    19  16  88 CALM      30.24S
BAD AXE        FLURRIES  18  15  88 SE6       30.28S WCI   9
CARO           LGT SNOW  17  14  87 E5        30.27S WCI  10
DETROIT CITY   CLOUDY    20  18  92 CALM      30.26F
DETROIT        LGT SNOW  22  19  89 CALM      30.26S FOG
FLINT          LGT SNOW  18  14  84 E8        30.26R FOG     WCI   8
GROSSE ILE     LGT SNOW  23  21  91 S5        30.25S WCI  17
HILLSDALE      LGT SNOW  19  16  86 CALM      30.20R
HOWELL         LGT SNOW  19  17  95 CALM      30.23S

CITY           SKY/WX    TMP DP  RH WIND       PRES   REMARKS
JACKSON        CLOUDY    19  16  88 E5        30.22S WCI  12
LAMBERTVILLE   FLURRIES  22  19  91 SW3       30.25S
LANSING        LGT SNOW  18  15  88 E5        30.25R FOG     WCI  11
LAPEER         FLURRIES  17  14  88 CALM      30.26R
MASON          LGT SNOW  19  15  82 CALM      30.23S
MONROE         LGT SNOW  21  19  89 CALM      30.25S
MT. CLEMENS    CLOUDY    20  20  99 E3        30.25S
PONTIAC        LGT SNOW  19  17  92 SE3       30.23R FOG
PORT HOPE        N/A     21  17  84 SE18      30.28S WCI   6
PORT HURON     LGT SNOW  19  16  86 CALM      30.27S
TRI CITIES     LGT SNOW  17  15  92 NE6       30.29R FOG     WCI   9
MIDLAND        LGT SNOW  18  14  87 CALM      30.28R
TROY           CLOUDY    21  19  91 CALM      30.27S
SAGINAW HB     LGT SNOW  18  16  93 CALM      30.28R
$$
MIZ043>046-050>051-056>058-064>065-071>073-077>080-160200-
SOUTHWEST LOWER MICHIGAN

CITY           SKY/WX    TMP DP  RH WIND       PRES   REMARKS
BATTLE CREEK   LGT SNOW  21  17  84 E3        30.22S FOG
BENTON HARBOR  LGT SNOW  21  16  81 SW13      30.24R WCI   9
BIG RAPIDS     CLOUDY    15  10  81 CALM      30.25R
COLDWATER      LGT SNOW  21  20  95 CALM      30.21S
FREMONT        FLURRIES  17  10  75 E6        30.25R WCI   8
HOLLAND        LGT SNOW  20  16  84 E7        30.23S FOG     WCI  11
GRAND RAPIDS   LGT SNOW  18  15  88 E6        30.24R FOG     WCI  10
IONIA          LGT SNOW  18  15  89 NE6       30.24R WCI   9
KALAMAZOO      LGT SNOW  21  17  84 E3        30.23R FOG
LUDINGTON      CLOUDY    15  13  89 CALM      30.29R
MARSHALL       FLURRIES  19  17  90 CALM      30.22R
MOUNT PLEASANT LGT SNOW  17  13  84 CALM      30.27R
MUSKEGON       LGT SNOW  19  13  77 NE6       30.26R WCI  11
SOUTH HAVEN    LGT SNOW  22  19  89 SE5       30.23S WCI  16
$$
MIZ016>042-160200-
NORTHERN LOWER MICHIGAN

CITY           SKY/WX    TMP DP  RH WIND       PRES   REMARKS
ALPENA         LGT SNOW  20  18  92 E10       30.32S FOG     WCI   9
BEAVER ISLAND  LGT SNOW  18  15  88 NE14G21   30.36R WCI   4
BELLAIRE       CLOUDY    15  15  99 CALM      30.32R
CADILLAC       FLURRIES  11  10  93 NE3       30.23R
CHARLEVOIX     CLOUDY    20  16  82 NE8       30.35S WCI  11
FRANKFORT      CLOUDY    18  15  86 CALM      30.31R
GAYLORD        LGT SNOW  14  14 100 NE7       30.25S FOG     WCI   4
GRAYLING       LGT SNOW  12   8  82 CALM      30.27R VSB 1
HARBOR SPRINGS FLURRIES  19  15  85 NE8       30.32S WCI   9
HOUGHTON LAKE  LGT SNOW  13  10  88 NE3       30.26R FOG
MANISTEE       MOCLDY    12   8  84 CALM      30.30R
OSCODA         LGT SNOW  18  16  92 CALM      30.30S VSB 1
PELLSTON       LGT SNOW  20  16  84 NE13      30.34S VSB 1   WCI   7
ROGERS CITY    LGT SNOW  20  17  88 E18G29    30.35R WCI   5
TRAVERSE CITY  FLURRIES  14  11  87 CALM      30.30R
$$
MIZ007>008-015-160200-
EASTERN UPPER MICHIGAN

CITY           SKY/WX    TMP DP  RH WIND       PRES   REMARKS
KINROSS        LGT SNOW  15  11  83 E14       30.39R FOG     WCI   0
MACKINAC ISLAN LGT SNOW  17  13  84 NE21G30   30.36R WCI   0
NEWBERRY       CLOUDY    14  13  97 NE6       30.38R WCI   5
S. S. MARIE    CLOUDY    17  10  74 E6        30.41R WCI   9
MUNISING         N/A     18  13  80 E9        30.40R WCI   7
$$
MIZ004>006-011>014-085-160200-
CENTRAL UPPER MICHIGAN

CITY           SKY/WX    TMP DP  RH WIND       PRES   REMARKS
MANISTIQUE     LGT SNOW  16  15  95 NE8G20    30.37R WCI   5
ESCANABA       FLURRIES  17  14  88 N9        30.36R WCI   6
MENOMINEE      FLURRIES  19  16  88 NE10      30.34R WCI   7
SAWYER-GWINN   FLURRIES  14  10  85 NE3       30.34S
$$
MIZ001>003-009>011-084-160200-
WESTERN UPPER MICHIGAN

CITY           SKY/WX    TMP DP  RH WIND       PRES   REMARKS
IRON MOUNTAIN  CLOUDY    15  11  83 NE6       30.32R WCI   6
HOUGHTON       LGT SNOW  20  15  81 NE6       30.38R WCI  12
COPPER HARBOR    N/A     24  19  81 E13G23    30.42S WCI  12
IRONWOOD       FLURRIES   9   7  92 NE5       30.37R WCI   1
$$

ABBREVIATIONS USED IN REMARKS
   TC - TEMPERATURE IN CELSIUS
  WCI - WIND CHILL INDEX
   HX - HEAT INDEX
  VSB - VISIBILITY





USA.gov is the U.S. government's official web portal to all federal, state and local government web resources and services.